Location: Bryzozowice
(50.3667°N, 18.9667°E)
Time: 16:48:48
(UTC+00:00)

STARLINK-1100 - Pass Details

Date: 24 January 2020
Orbit: 348 x 351 km, 53.0° (Epoch: 19 February)

Event Time Altitude Azimuth Distance (km) Brightness Sun altitude
Rises 17:13:06 0° 279° (W) 2,169 8.1 -17.3°
Reaches altitude 10° 17:15:09 10° 286° (WNW) 1,326 6.6 -17.7°
Enters shadow 17:18:00 47° 360° (N) 478 3.2 -18.1°
